Terminal Aerodrome Forecast
Issued by NWS

Home | Current Version | Previous Version | Text Only | Print | Product List | Glossary On
Versions: 1 2 3 4 5 6 7 8 9 10 11 12 13
000
FTUS45 KRIW 271700
TAFBPI
TAF
KBPI 271725Z 2718/2818 14006KT P6SM -SHRA SCT040 OVC070
     FM280200 VRB06KT P6SM SCT045 BKN080
     FM280700 VRB05KT P6SM SCT090=

USA.gov is the U.S. government's official web portal to all federal, state and local government web resources and services.